"America/Chicago Time","Lifetime Energy (kWh)","Power (W)","AC Volts RMS (V) ","AC Amps RMS (mA)","Grid Frequency (Hz)","Inverter Temperature (C)"
"06/08/12 06:12:57","113.3112","12.2","212.8","43","60.0","21"
"06/08/12 06:17:58","113.3115","0.0","213.98","0","60.0","22"
"06/08/12 06:22:57","113.3119","12.4","216.44","9","60.03","22"
"06/08/12 06:27:56","113.3123","11.0","211.27","2","60.0","22"
"06/08/12 06:32:57","113.3128","14.5","213.39","0","60.03","23"
"06/08/12 06:37:58","113.3134","10.3","214.35","2","60.03","23"
"06/08/12 06:42:57","113.3141","12.9","213.57","54","60.0","23"
"06/08/12 06:47:56","113.3151","21.8","214.13","214","60.03","23"
"06/08/12 06:52:56","113.3162","12.1","215.4","3","60.03","24"
"06/08/12 06:57:56","113.3176","21.2","214.98","36","60.0","24"
"06/08/12 07:02:57","113.3193","13.6","214.94","16","60.0","25"
"06/08/12 07:07:57","113.3211","37.7","213.99","188","60.0","25"
"06/08/12 07:12:56","113.3233","33.3","215.12","64","60.0","25"
"06/08/12 07:17:57","113.3258","34.7","213.99","101","60.0","26"
"06/08/12 07:22:58","113.3288","40.0","214.16","311","59.96","26"
"06/08/12 07:27:56","113.332","51.5","214.4","134","60.03","27"
"06/08/12 07:32:57","113.3358","54.6","215.53","254","60.03","27"
"06/08/12 07:37:57","113.3396","51.0","215.5","76","60.0","28"
"06/08/12 07:42:57","113.3435","45.6","214.37","289","60.03","28"
"06/08/12 07:47:57","113.3482","74.1","214.9","369","60.0","29"
"06/08/12 07:52:57","113.3542","82.7","215.28","408","60.0","29"
"06/08/12 07:57:57","113.3608","88.5","215.95","425","60.0","30"
"06/08/12 08:02:57","113.3677","90.7","216.29","438","60.0","31"
"06/08/12 08:07:56","113.3748","93.1","215.28","448","60.0","32"
"06/08/12 08:12:57","113.3817","73.6","214.92","366","60.0","32"
"06/08/12 08:17:58","113.3879","74.2","214.07","201","60.0","32"
"06/08/12 08:22:58","113.3913","39.3","213.59","253","60.0","32"
"06/08/12 08:27:58","113.3937","26.7","212.7","205","60.03","31"
"06/08/12 08:32:57","113.3963","42.9","214.39","244","60.03","30"
"06/08/12 08:37:58","113.4001","64.8","215.31","328","60.03","30"
"06/08/12 08:42:58","113.4048","72.3","215.04","362","60.03","30"
"06/08/12 08:47:57","113.4111","85.1","214.32","417","60.03","30"
"06/08/12 08:52:58","113.4181","89.9","214.48","438","60.03","31"
"06/08/12 08:57:57","113.4242","67.4","214.87","345","60.03","31"
"06/08/12 09:02:56","113.4304","94.8","215.56","461","60.07","31"
"06/08/12 09:07:57","113.4393","121.1","215.82","570","60.0","32"
"06/08/12 09:12:58","113.4489","98.8","215.25","476","60.03","32"
"06/08/12 09:17:57","113.456","87.2","215.21","423","60.0","32"
"06/08/12 09:22:58","113.4617","49.7","214.32","438","60.0","31"
"06/08/12 09:27:57","113.4659","58.3","214.41","236","60.03","31"
"06/08/12 09:32:57","113.4699","57.0","213.07","374","60.0","30"
"06/08/12 09:37:57","113.4738","58.3","214.15","235","60.03","30"
"06/08/12 09:42:57","113.4777","44.5","213.96","340","60.0","30"
"06/08/12 09:47:57","113.4815","45.1","214.08","306","60.03","30"
"06/08/12 09:52:56","113.4858","43.4","216.2","81","60.03","30"
"06/08/12 09:57:58","113.4908","64.7","216.86","326","60.03","29"
"06/08/12 10:02:57","113.496","73.0","215.76","365","60.03","29"
"06/08/12 10:07:57","113.5024","112.5","216.33","534","60.0","30"
"06/08/12 10:12:57","113.5095","72.5","215.07","362","60.0","30"
"06/08/12 10:17:56","113.5146","66.9","214.86","359","60.03","30"
"06/08/12 10:22:56","113.5182","35.8","210.94","353","60.03","30"
"06/08/12 10:27:57","113.521","28.9","214.73","68","60.0","30"
"06/08/12 10:32:56","113.5234","37.7","214.98","276","60.0","30"
"06/08/12 10:37:58","113.5265","52.0","214.59","386","60.0","29"
"06/08/12 10:42:57","113.5301","38.7","214.23","345","60.03","29"
"06/08/12 10:47:58","113.5336","55.7","214.74","77","60.03","29"
"06/08/12 10:52:58","113.5373","51.6","214.33","185","60.0","29"
"06/08/12 10:57:57","113.5406","42.6","214.71","229","60.03","29"
"06/08/12 11:02:57","113.5433","26.1","214.33","171","60.0","30"
"06/08/12 11:07:57","113.5457","32.3","210.3","243","60.03","29"
"06/08/12 11:12:58","113.5488","41.9","216.63","128","60.0","29"
"06/08/12 11:17:57","113.5517","37.6","216.09","255","60.0","29"
"06/08/12 11:22:58","113.5558","63.1","215.21","324","60.03","29"
"06/08/12 11:27:57","113.5609","65.7","215.47","335","60.03","29"
"06/08/12 11:32:58","113.5684","106.2","212.24","516","59.96","30"
"06/08/12 11:37:57","113.5757","79.2","215.64","389","60.03","30"
"06/08/12 11:42:57","113.5821","78.3","215.46","388","59.96","30"
"06/08/12 11:47:57","113.5873","44.0","215.72","374","60.0","30"
"06/08/12 11:52:58","113.5913","68.4","215.64","111","60.03","30"
"06/08/12 11:57:58","113.5967","60.9","217.62","311","60.03","30"
"06/08/12 12:02:58","113.6001","35.0","215.65","290","60.0","29"
"06/08/12 12:07:57","113.6039","45.2","215.63","383","60.0","29"
"06/08/12 12:12:57","113.6081","38.4","214.39","108","60.03","29"
"06/08/12 12:17:57","113.6113","23.8","214.1","308","60.0","28"
"06/08/12 12:22:57","113.6124","8.7","213.73","108","60.0","28"
"06/08/12 12:27:57","113.6133","17.2","214.6","26","60.03","28"
"06/08/12 12:32:56","113.6159","36.1","214.8","249","60.0","27"
"06/08/12 12:37:57","113.6196","43.9","215.7","363","60.0","27"
"06/08/12 12:42:57","113.6237","43.2","215.67","413","60.03","27"
"06/08/12 12:47:57","113.6273","40.5","214.79","162","60.0","27"
"06/08/12 12:52:57","113.6304","31.8","215.04","223","60.03","28"
"06/08/12 12:57:57","113.633","35.4","214.77","254","60.0","27"
"06/08/12 13:02:57","113.6354","35.1","215.4","175","60.03","27"
"06/08/12 13:07:58","113.6379","40.9","215.25","214","60.0","27"
"06/08/12 13:12:56","113.6412","40.4","215.49","185","60.03","26"
"06/08/12 13:17:56","113.6454","63.6","216.23","216","60.0","26"
"06/08/12 13:22:57","113.6492","48.2","215.57","94","60.03","26"
"06/08/12 13:27:57","113.6529","60.5","215.15","340","60.03","26"
"06/08/12 13:32:57","113.6569","30.2","214.99","170","60.03","26"
"06/08/12 13:37:57","113.6588","14.8","214.24","22","60.03","26"
"06/08/12 13:42:58","113.6609","31.6","215.37","235","60.03","26"
"06/08/12 13:47:58","113.6631","35.8","215.0","188","60.03","26"
"06/08/12 13:52:56","113.6657","33.4","215.43","97","60.0","26"
"06/08/12 13:57:57","113.6699","66.2","215.06","337","60.07","26"
"06/08/12 14:02:57","113.6759","78.0","215.86","383","60.03","27"
"06/08/12 14:07:56","113.6822","131.0","217.12","611","60.03","27"
"06/08/12 14:12:58","113.6886","81.1","215.0","400","60.03","28"
"06/08/12 14:17:57","113.6961","70.6","214.51","353","60.03","29"
"06/08/12 14:22:58","113.7025","62.9","215.08","319","60.03","30"
"06/08/12 14:27:57","113.7052","12.3","214.51","113","60.03","30"
"06/08/12 14:32:58","113.7058","0.0","213.7","0","60.0","30"
"06/08/12 14:37:58","113.7062","11.4","214.61","10","60.0","29"
"06/08/12 14:42:58","113.708","23.2","214.56","33","60.03","28"
"06/08/12 14:48:00","113.7116","72.3","215.34","359","60.0","28"
"06/08/12 14:52:56","113.7181","99.7","216.47","473","60.03","28"
"06/08/12 14:57:57","113.7241","71.6","216.65","355","60.03","28"
"06/08/12 15:02:57","113.7301","75.6","214.77","378","60.0","28"
"06/08/12 15:07:57","113.7355","52.8","214.53","99","60.03","29"
"06/08/12 15:12:57","113.7392","41.0","215.43","222","60.03","29"
"06/08/12 15:17:57","113.7437","60.5","215.2","171","60.0","29"
"06/08/12 15:22:56","113.748","53.3","214.6","356","60.03","29"
"06/08/12 15:27:57","113.7565","160.7","217.32","738","60.03","31"
"06/08/12 15:32:57","113.7681","138.3","217.36","639","60.0","32"
"06/08/12 15:37:57","113.7771","71.9","215.3","356","60.0","32"
"06/08/12 15:42:57","113.7823","63.7","215.55","324","60.0","32"
"06/08/12 15:47:56","113.7872","48.1","214.33","430","60.03","32"
"06/08/12 15:52:58","113.7913","42.0","214.62","84","60.0","31"
"06/08/12 15:57:58","113.7955","53.6","214.5","146","60.03","31"
"06/08/12 16:02:57","113.7993","63.4","215.52","324","60.0","30"
"06/08/12 16:07:58","113.8061","90.6","215.82","440","60.03","30"
"06/08/12 16:12:57","113.8143","135.2","217.03","626","60.0","31"
"06/08/12 16:17:57","113.8229","52.3","215.84","151","60.03","31"
"06/08/12 16:22:57","113.8265","55.4","214.43","156","60.0","30"
"06/08/12 16:27:56","113.8309","72.9","216.07","360","60.0","30"
"06/08/12 16:32:57","113.8352","68.2","214.94","339","60.03","29"
"06/08/12 16:37:57","113.8429","115.2","216.63","544","60.0","29"
"06/08/12 16:42:58","113.8513","109.8","216.83","519","60.03","29"
"06/08/12 16:47:58","113.8579","55.1","215.15","78","60.03","29"
"06/08/12 16:52:57","113.864","69.4","216.03","345","60.03","29"
"06/08/12 16:57:57","113.868","33.2","216.45","163","60.0","29"
"06/08/12 17:02:57","113.8702","34.7","215.1","31","60.07","28"
"06/08/12 17:07:58","113.8741","68.0","216.48","319","60.0","28"
"06/08/12 17:12:57","113.8792","47.3","215.59","255","60.03","27"
"06/08/12 17:17:56","113.884","54.7","216.17","332","60.0","27"
"06/08/12 17:22:58","113.8888","64.2","216.55","326","60.03","27"
"06/08/12 17:27:57","113.8937","63.5","216.18","326","60.03","27"
"06/08/12 17:32:58","113.8979","37.2","215.7","267","60.0","27"
"06/08/12 17:37:57","113.9017","54.0","216.09","357","60.03","27"
"06/08/12 17:42:58","113.9055","38.9","216.41","135","60.0","27"
"06/08/12 17:47:58","113.9088","35.2","215.24","179","60.07","26"
"06/08/12 17:52:57","113.9117","32.2","214.92","117","60.0","26"
"06/08/12 17:57:58","113.9132","21.3","215.19","233","60.03","26"
"06/08/12 18:02:57","113.9153","33.0","216.17","267","60.03","25"
"06/08/12 18:07:58","113.9174","34.6","215.65","186","60.03","25"
"06/08/12 18:12:57","113.9204","33.5","214.57","219","60.0","25"
"06/08/12 18:17:57","113.9231","32.9","214.02","161","60.03","25"
"06/08/12 18:22:57","113.9251","17.1","214.35","230","60.0","25"
"06/08/12 18:27:58","113.9267","21.4","214.26","39","60.03","25"
"06/08/12 18:32:57","113.9279","14.9","213.68","15","60.03","25"
"06/08/12 18:37:58","113.9291","12.5","214.06","9","60.03","25"
"06/08/12 18:42:58","113.9301","13.6","213.25","100","60.0","25"
"06/08/12 18:47:58","113.9307","0.0","213.62","199","60.03","24"
"06/08/12 18:52:58","113.9312","10.8","213.56","0","60.03","24"
"06/08/12 18:57:57","113.9318","16.2","213.34","275","60.03","24"
"06/08/12 19:02:58","113.933","25.6","213.67","61","60.03","24"
"06/08/12 19:07:57","113.934","14.1","213.69","113","60.03","23"
"06/08/12 19:12:58","113.9347","0.0","213.57","0","60.0","23"
"06/08/12 19:17:57","113.9351","14.5","212.33","35","60.0","23"
"06/08/12 19:22:58","113.9355","12.4","213.26","9","60.0","23"
"06/08/12 19:27:56","113.9357","0.0","213.09","0","60.03","23"
"06/08/12 19:37:58","113.9361","0.0","213.46","0","60.03","22"
"06/08/12 19:43:02","113.9364","13.2","212.64","1","60.0","22"
"06/08/12 19:47:58","113.9368","0.0","212.8","0","60.0","23"
"06/08/12 19:52:57","113.9372","0.0","212.88","0","60.07","22"
"06/08/12 19:57:57","113.9375","0.0","212.92","0","60.0","22"
"06/08/12 20:02:58","113.9379","13.8","213.0","16","60.0","22"
"06/08/12 20:07:58","113.9381","13.6","213.7","27","60.0","22"
"06/09/12 06:08:00","113.9387","0.0","215.3","0","60.03","19"
"06/09/12 06:12:59","113.9392","14.2","215.35","0","60.0","20"
"06/09/12 06:17:59","113.9397","13.7","214.28","18","60.0","20"
"06/09/12 06:22:58","113.9402","0.0","214.16","0","60.03","20"
"06/09/12 06:27:57","113.9409","16.8","214.41","55","60.03","20"
"06/09/12 06:32:58","113.9418","10.4","214.17","3","60.0","21"
"06/09/12 06:37:58","113.9428","12.4","214.07","4","60.03","22"
"06/09/12 06:42:57","113.9437","10.9","214.16","196","60.0","22"
"06/09/12 06:47:59","113.9448","14.9","214.42","50","60.0","22"
"06/09/12 06:52:58","113.9459","23.9","213.58","215","60.0","22"
"06/09/12 06:57:58","113.9473","13.5","213.97","113","60.03","23"
"06/09/12 07:02:58","113.949","13.9","213.98","3","60.0","23"
"06/09/12 07:07:57","113.9507","29.7","214.27","146","60.03","23"
"06/09/12 07:12:58","113.9532","18.5","213.72","205","60.0","24"
"06/09/12 07:17:57","113.9548","15.7","213.5","282","60.03","24"
"06/09/12 07:22:57","113.9573","30.4","213.76","28","60.0","25"
"06/09/12 07:27:57","113.959","33.3","215.14","93","60.0","25"
"06/09/12 07:32:58","113.9614","14.0","214.27","96","60.03","26"
"06/09/12 07:37:58","113.9634","16.2","214.45","235","60.07","26"
"06/09/12 07:42:59","113.9663","49.6","215.75","298","60.0","26"
"06/09/12 07:47:59","113.9687","18.5","214.75","39","60.0","27"
"06/09/12 07:52:57","113.9705","16.4","214.83","49","60.0","27"
"06/09/12 07:57:58","113.9741","20.1","214.5","14","60.03","27"
"06/09/12 08:02:58","113.9771","78.7","215.7","386","60.0","28"
"06/09/12 08:07:57","113.9799","38.7","214.12","107","59.96","28"
"06/09/12 08:12:58","113.9838","81.3","215.71","402","60.0","29"
"06/09/12 08:17:57","113.9878","32.4","213.86","150","60.0","30"
"06/09/12 08:22:57","113.9939","83.5","215.23","407","60.0","31"
"06/09/12 08:27:59","113.9999","51.3","214.31","283","60.03","32"
"06/09/12 08:32:57","114.0048","101.6","215.54","483","60.0","32"
"06/09/12 08:37:58","114.0099","41.5","214.0","223","60.0","32"
"06/09/12 08:42:59","114.0157","101.8","215.41","486","60.0","32"
"06/09/12 08:47:58","114.024","72.5","215.26","363","60.0","33"
"06/09/12 08:52:58","114.031","111.2","215.99","530","60.0","32"
"06/09/12 08:57:58","114.0384","118.3","216.0","554","60.0","33"
"06/09/12 09:02:57","114.0471","113.7","216.03","540","60.0","32"
"06/09/12 09:07:57","114.055","67.0","215.14","338","60.03","33"
"06/09/12 09:12:57","114.0639","116.5","216.64","543","60.0","34"
"06/09/12 09:17:57","114.0731","118.5","216.86","557","60.0","34"
"06/09/12 09:22:58","114.0823","121.9","217.07","569","60.0","34"
"06/09/12 09:27:58","114.092","124.8","217.0","584","60.03","35"
"06/09/12 09:32:57","114.1017","126.5","216.73","594","60.03","36"
"06/09/12 09:38:00","114.1119","130.0","216.16","609","60.0","36"
"06/09/12 09:42:58","114.122","132.3","216.35","621","60.03","37"
"06/09/12 09:47:58","114.1325","133.3","216.48","622","60.0","38"
"06/09/12 09:52:58","114.1427","135.9","216.42","629","60.03","38"
"06/09/12 09:57:57","114.1535","139.1","216.58","639","60.03","38"
"06/09/12 10:02:57","114.1642","143.1","216.26","659","60.0","37"
"06/09/12 10:07:58","114.1753","138.7","216.36","647","60.03","36"
"06/09/12 10:12:58","114.1859","140.5","215.96","653","60.03","36"
"06/09/12 10:17:57","114.1968","143.8","215.85","668","60.0","36"
"06/09/12 10:22:58","114.2081","144.4","216.48","664","60.0","36"
"06/09/12 10:27:58","114.2198","144.4","216.57","669","60.0","36"
"06/09/12 10:32:58","114.231","142.8","216.45","664","60.03","35"
"06/09/12 10:37:58","114.2425","145.8","216.62","669","59.96","36"
"06/09/12 10:42:58","114.2538","153.8","217.44","705","60.0","36"
"06/09/12 10:47:57","114.2659","153.2","217.23","701","60.0","36"
"06/09/12 10:52:57","114.2781","159.6","217.56","733","60.07","36"
"06/09/12 10:57:58","114.2907","162.4","217.7","741","60.07","36"
"06/09/12 11:02:57","114.3035","162.6","218.16","742","60.0","37"
"06/09/12 11:07:57","114.3164","164.6","217.81","755","60.03","38"
"06/09/12 11:12:58","114.3293","163.7","217.42","744","60.0","38"
"06/09/12 11:17:57","114.3421","166.3","217.4","759","60.0","39"
"06/09/12 11:22:57","114.3552","145.3","217.31","669","60.0","39"
"06/09/12 11:27:59","114.3674","195.9","218.49","881","60.0","39"
"06/09/12 11:32:58","114.3798","96.3","216.07","458","60.0","40"
"06/09/12 11:37:58","114.3932","175.8","217.81","799","60.03","40"
"06/09/12 11:42:58","114.406","162.6","217.59","743","60.0","41"
"06/09/12 11:47:58","114.419","164.8","217.54","752","60.03","41"
"06/09/12 11:52:58","114.4316","162.3","217.66","741","60.0","40"
"06/09/12 11:57:58","114.4443","167.3","217.57","761","60.03","40"
"06/09/12 12:02:58","114.4572","164.3","218.23","753","60.03","41"
"06/09/12 12:07:58","114.4698","159.8","218.06","729","60.0","41"
"06/09/12 12:12:58","114.481","140.9","217.55","650","60.0","40"
"06/09/12 12:17:57","114.4932","70.4","215.03","354","60.0","41"
"06/09/12 12:22:57","114.5056","90.4","216.46","438","60.03","40"
"06/09/12 12:27:58","114.5186","165.2","217.96","755","60.03","40"
"06/09/12 12:32:59","114.5316","81.3","215.77","396","60.0","39"
"06/09/12 12:37:57","114.5432","108.6","217.13","516","60.03","39"
"06/09/12 12:42:59","114.5533","175.5","218.6","793","60.03","38"
"06/09/12 12:47:58","114.5652","173.1","218.55","788","60.03","38"
"06/09/12 12:52:57","114.5758","185.8","218.23","841","60.0","37"
"06/09/12 12:57:57","114.5888","172.1","217.83","782","60.03","37"
"06/09/12 13:02:57","114.6021","171.5","217.38","780","60.03","38"
"06/09/12 13:07:57","114.6152","171.1","217.86","777","60.03","38"
"06/09/12 13:12:57","114.6284","166.2","217.84","758","60.0","38"
"06/09/12 13:17:58","114.6414","164.7","218.3","750","60.03","38"
"06/09/12 13:22:58","114.6541","164.9","217.94","752","60.03","38"
"06/09/12 13:27:59","114.6666","165.4","218.01","752","60.0","38"
"06/09/12 13:32:58","114.6793","166.6","217.91","760","60.03","39"
"06/09/12 13:37:58","114.6922","161.3","218.23","733","60.0","40"
"06/09/12 13:42:58","114.7048","160.6","217.68","731","60.0","40"
"06/09/12 13:47:59","114.7174","161.1","217.33","736","60.0","40"
"06/09/12 13:52:59","114.7297","158.9","217.35","728","60.0","40"
"06/09/12 13:57:58","114.742","156.9","217.6","722","60.03","40"
"06/09/12 14:02:58","114.7544","159.7","218.26","729","60.0","40"
"06/09/12 14:07:58","114.7668","157.9","217.86","722","60.03","40"
"06/09/12 14:12:59","114.7789","152.9","217.66","700","60.0","40"
"06/09/12 14:17:58","114.7789","157.0","217.1","721","60.03","41"
"06/09/12 14:22:57","114.7909","154.7","216.8","711","60.0","40"
"06/09/12 14:27:59","114.8029","151.4","217.53","697","60.0","41"
"06/09/12 14:32:59","114.8144","144.5","217.35","669","60.0","41"
"06/09/12 14:37:57","114.8258","146.0","216.32","673","60.0","41"
"06/09/12 14:42:57","114.8369","143.3","216.65","656","60.0","42"
"06/09/12 14:47:58","114.848","138.2","216.29","642","60.0","41"
"06/09/12 14:52:58","114.8588","143.8","216.88","661","60.0","41"
"06/09/12 14:57:57","114.87","145.9","216.54","674","60.0","42"
"06/09/12 15:02:58","114.8812","140.5","216.54","652","60.0","42"
"06/09/12 15:07:59","114.8914","118.4","216.11","556","60.03","42"
"06/09/12 15:12:58","114.8998","104.2","215.04","493","60.03","42"
"06/09/12 15:17:57","114.9089","119.6","215.47","570","60.0","41"
"06/09/12 15:22:59","114.9184","110.0","215.64","521","60.0","41"
"06/09/12 15:27:57","114.9257","71.7","214.35","360","60.03","41"
"06/09/12 15:32:58","114.9321","84.8","214.87","415","60.03","40"
"06/09/12 15:37:57","114.9391","98.8","215.11","474","60.0","40"
"06/09/12 15:42:59","114.9484","122.3","216.11","573","60.0","40"
"06/09/12 15:47:58","114.9575","110.3","216.02","525","60.0","41"
"06/09/12 15:52:58","114.9656","100.4","215.87","482","60.0","41"
"06/09/12 15:57:57","114.9724","78.5","215.26","386","60.0","41"
"06/09/12 16:02:58","114.979","93.7","215.93","454","60.03","40"
"06/09/12 16:07:59","114.9878","117.1","216.16","553","60.03","40"
"06/09/12 16:12:58","114.9962","105.1","215.55","500","60.03","39"
"06/09/12 16:17:57","115.0043","107.4","215.53","509","60.0","39"
"06/09/12 16:22:58","115.0123","102.7","216.06","487","60.0","38"
"06/09/12 16:27:58","115.0198","92.3","215.41","449","60.03","38"
"06/09/12 16:32:58","115.0274","100.4","215.76","482","60.03","38"
"06/09/12 16:37:58","115.0346","71.8","214.98","361","60.03","37"
"06/09/12 16:42:58","115.0412","94.0","215.1","455","60.0","37"
"06/09/12 16:47:58","115.0468","73.2","215.33","363","60.03","36"
"06/09/12 16:52:58","115.0529","92.7","215.35","445","60.03","36"
"06/09/12 16:57:58","115.0601","87.3","215.38","424","60.0","35"
"06/09/12 17:02:58","115.0665","78.2","215.91","385","60.03","34"
"06/09/12 17:07:59","115.0724","72.1","215.34","361","60.0","34"
"06/09/12 17:12:58","115.0777","65.8","216.1","334","60.03","33"
"06/09/12 17:17:58","115.0827","63.2","215.59","319","60.03","33"
"06/09/12 17:22:58","115.0872","53.4","215.81","155","60.03","32"
"06/09/12 17:27:58","115.0911","41.6","215.27","409","60.03","32"
"06/09/12 17:32:59","115.0949","52.5","215.72","355","60.03","31"
"06/09/12 17:37:58","115.0986","53.8","214.15","228","60.03","31"
"06/09/12 17:42:57","115.102","47.5","213.99","343","60.0","30"
"06/09/12 17:47:57","115.1051","43.8","214.13","111","60.03","29"
"06/09/12 17:52:58","115.108","39.3","213.92","121","60.03","29"
"06/09/12 17:57:58","115.1105","34.7","213.93","233","60.0","28"
"06/09/12 18:02:59","115.1127","29.1","214.31","17","60.03","28"
"06/09/12 18:07:57","115.1147","32.8","213.96","44","60.03","28"
"06/09/12 18:12:58","115.1164","24.8","213.76","46","60.03","28"
"06/09/12 18:17:59","115.1179","17.6","213.88","39","60.0","27"
"06/09/12 18:22:58","115.1192","21.0","213.58","103","60.03","27"
"06/09/12 18:27:57","115.1203","13.5","213.98","0","60.03","27"
"06/09/12 18:33:00","115.1211","10.3","213.68","10","60.03","27"
"06/09/12 18:37:59","115.1219","10.9","213.74","1","60.0","27"
"06/09/12 18:42:58","115.1226","0.0","213.46","0","60.0","27"
"06/09/12 18:47:59","115.1231","13.2","213.66","35","60.03","27"
"06/09/12 18:52:57","115.1236","0.0","212.83","0","60.0","26"
"06/09/12 18:57:58","115.124","0.0","213.41","0","59.96","26"
"06/09/12 19:02:59","115.1244","11.0","214.04","3","60.03","26"
"06/09/12 19:07:57","115.1248","0.0","213.66","19","60.03","26"
"06/09/12 19:17:59","115.1254","0.0","214.09","0","60.03","26"
"06/09/12 19:27:57","115.1258","11.5","213.71","0","60.0","26"
"06/09/12 19:32:58","115.126","0.0","212.51","0","60.03","26"
"06/09/12 19:37:58","115.126","0.0","213.55","0","60.0","26"
"06/10/12 06:17:19","115.1263","0.0","213.3","0","60.03","23"
"06/10/12 06:22:16","115.1266","0.0","212.73","0","60.03","23"
"06/10/12 06:27:16","115.127","0.0","214.11","0","60.03","24"
"06/10/12 06:32:16","115.1274","14.4","214.01","11","60.03","24"
"06/10/12 06:37:17","115.1279","0.0","213.91","0","60.03","24"
"06/10/12 06:42:17","115.1285","7.3","213.85","0","60.03","24"
"06/10/12 06:47:15","115.1293","14.4","213.35","26","60.03","25"
"06/10/12 06:52:15","115.1302","10.6","213.48","49","60.03","25"
"06/10/12 06:57:17","115.1313","12.4","214.14","30","60.07","25"
"06/10/12 07:02:16","115.1327","19.9","213.56","16","60.03","25"
"06/10/12 07:07:16","115.1344","13.5","213.47","113","60.03","26"
"06/10/12 07:12:15","115.1362","22.6","214.34","229","60.0","26"
"06/10/12 07:17:16","115.1385","34.3","213.98","146","60.0","26"
"06/10/12 07:22:16","115.1409","30.0","214.09","156","60.0","27"
"06/10/12 07:27:16","115.1438","32.5","213.99","334","60.03","27"
"06/10/12 07:32:16","115.1468","45.3","213.74","343","60.0","27"
"06/10/12 07:37:16","115.1501","38.4","213.57","334","60.03","28"
"06/10/12 07:42:16","115.1537","54.4","214.12","172","60.03","28"
"06/10/12 07:47:17","115.1576","49.6","213.69","145","60.0","29"
"06/10/12 07:52:15","115.1615","58.3","214.25","83","60.03","29"
"06/10/12 07:57:15","115.1654","59.7","214.35","214","60.0","30"
"06/10/12 08:02:16","115.1702","67.9","214.38","343","60.0","31"
"06/10/12 08:07:16","115.1756","72.7","215.0","362","60.0","31"
"06/10/12 08:12:17","115.1815","77.6","214.72","384","60.03","32"
"06/10/12 08:17:16","115.1876","78.1","216.16","382","60.0","32"
"06/10/12 08:22:16","115.1933","72.3","215.88","357","60.0","33"
"06/10/12 08:27:17","115.1993","75.7","215.55","374","60.0","33"
"06/10/12 08:32:15","115.2053","85.3","216.16","417","60.0","33"
"06/10/12 08:37:17","115.2123","92.5","215.99","445","60.03","34"
"06/10/12 08:42:16","115.2196","92.2","216.84","445","60.03","35"
"06/10/12 08:47:16","115.2265","88.6","216.59","425","60.0","35"
"06/10/12 08:52:16","115.2338","100.8","216.49","481","60.03","35"
"06/10/12 08:57:17","115.2421","106.8","217.1","509","60.03","36"
"06/10/12 09:02:16","115.2503","108.1","216.72","509","60.0","36"
"06/10/12 09:07:16","115.2589","113.4","217.33","535","60.0","36"
"06/10/12 09:12:16","115.2678","117.6","217.0","547","60.0","37"
"06/10/12 09:17:17","115.2771","120.8","217.06","566","60.0","37"
"06/10/12 09:22:17","115.2867","123.7","216.85","579","60.03","37"